N172SP -KSAN

Flight info

Callsign N172SP
Flight time N/A
Altitude VFR
Route
Aircraft C172/L-VGD/C

Departure

Time N/A
Airport -

Arrival

Time 2026-05-05 06:44
Airport San Diego International Airport (KSAN)
Time Latitude Longitude Altitude Speed Heading
2026-05-05 06:38 32.78140 -117.29734 2390 ft 103 kts 109°
2026-05-05 06:38 32.77885 -117.28911 2422 ft 101 kts 110°
2026-05-05 06:38 32.77703 -117.28079 2356 ft 111 kts 105°
2026-05-05 06:38 32.77443 -117.27260 2406 ft 105 kts 114°
2026-05-05 06:39 32.77212 -117.26441 2022 ft 109 kts 109°
2026-05-05 06:39 32.76962 -117.25610 1645 ft 106 kts 116°
2026-05-05 06:39 32.76642 -117.24829 1406 ft 106 kts 119°
2026-05-05 06:39 32.76310 -117.23938 1036 ft 122 kts 110°
2026-05-05 06:40 32.76064 -117.23112 949 ft 102 kts 112°
2026-05-05 06:40 32.75761 -117.22331 979 ft 103 kts 120°
2026-05-05 06:40 32.75449 -117.21550 945 ft 108 kts 112°
2026-05-05 06:40 32.75233 -117.20696 973 ft 105 kts 107°
2026-05-05 06:41 32.75103 -117.19848 1010 ft 104 kts 97°
2026-05-05 06:41 32.74993 -117.19008 1007 ft 101 kts 101°
2026-05-05 06:41 32.74838 -117.18201 1004 ft 103 kts 104°
2026-05-05 06:41 32.74709 -117.17352 1001 ft 101 kts 101°
2026-05-05 06:42 32.74555 -117.16524 982 ft 99 kts 104°
2026-05-05 06:42 32.74453 -117.15796 913 ft 81 kts 102°
2026-05-05 06:42 32.74103 -117.15364 761 ft 74 kts 172°
2026-05-05 06:42 32.73607 -117.15437 646 ft 68 kts 198°
2026-05-05 06:43 32.73177 -117.15584 566 ft 66 kts 208°
2026-05-05 06:43 32.73021 -117.16069 492 ft 63 kts 258°
2026-05-05 06:43 32.72922 -117.16569 318 ft 63 kts 259°
2026-05-05 06:43 32.72917 -117.17066 216 ft 60 kts 274°
2026-05-05 06:44 32.73010 -117.17548 114 ft 58 kts 284°
2026-05-05 06:44 32.73127 -117.18023 36 ft 58 kts 284°
2026-05-05 06:44 32.73214 -117.18382 15 ft 32 kts 281°
2026-05-05 06:44 32.73316 -117.18802 31 ft 71 kts 284°
2026-05-05 06:45 32.73459 -117.19405 182 ft 78 kts 285°
2026-05-05 06:45 32.73644 -117.20002 393 ft 78 kts 290°
2026-05-05 06:45 32.74037 -117.20418 560 ft 88 kts 349°
2026-05-05 06:45 32.74629 -117.20253 759 ft 90 kts 24°
2026-05-05 06:46 32.74967 -117.19641 920 ft 94 kts 90°
2026-05-05 06:46 32.74874 -117.18848 1012 ft 101 kts 103°
2026-05-05 06:46 32.74702 -117.18023 975 ft 105 kts 107°
2026-05-05 06:46 32.74547 -117.17161 911 ft 103 kts 104°
2026-05-05 06:47 32.74371 -117.16438 863 ft 82 kts 122°
2026-05-05 06:47 32.73883 -117.16215 668 ft 78 kts 192°
2026-05-05 06:47 32.73380 -117.16380 476 ft 70 kts 201°
2026-05-05 06:47 32.73030 -117.16711 362 ft 66 kts 261°
2026-05-05 06:48 32.72976 -117.17254 171 ft 64 kts 269°
2026-05-05 06:48 32.73059 -117.17749 54 ft 58 kts 283°
2026-05-05 06:48 32.73167 -117.18185 15 ft 45 kts 282°
2026-05-05 06:48 32.73253 -117.18547 16 ft 63 kts 284°
2026-05-05 06:49 32.73396 -117.19136 107 ft 81 kts 286°
2026-05-05 06:49 32.73564 -117.19770 321 ft 80 kts 287°
2026-05-05 06:49 32.73805 -117.20363 533 ft 78 kts 303°
2026-05-05 06:49 32.74358 -117.20472 649 ft 95 kts 17°
2026-05-05 06:50 32.74924 -117.20109 792 ft 99 kts 61°
2026-05-05 06:50 32.74877 -117.19327 951 ft 99 kts 105°
2026-05-05 06:50 32.74711 -117.18509 1012 ft 102 kts 108°
2026-05-05 06:50 32.74536 -117.17689 882 ft 101 kts 105°
2026-05-05 06:51 32.74372 -117.17016 814 ft 79 kts 128°
2026-05-05 06:51 32.73907 -117.16854 581 ft 69 kts 199°
2026-05-05 06:51 32.73443 -117.16967 376 ft 66 kts 195°
2026-05-05 06:51 32.73061 -117.17166 214 ft 58 kts 239°
2026-05-05 06:52 32.73037 -117.17635 76 ft 59 kts 277°
2026-05-05 06:52 32.73144 -117.18094 27 ft 52 kts 283°
2026-05-05 06:52 32.73222 -117.18403 15 ft 25 kts 307°
2026-05-05 06:52 32.73300 -117.18432 16 ft 0 kts 17°
2026-05-05 06:54 32.73307 -117.18429 16 ft 4 kts 28°
2026-05-05 06:54 32.73327 -117.18390 17 ft 8 kts 85°
2026-05-05 06:54 32.73315 -117.18329 16 ft 11 kts 105°
2026-05-05 06:54 32.73287 -117.18210 16 ft 13 kts 106°
2026-05-05 06:55 32.73267 -117.18128 16 ft 7 kts 107°
2026-05-05 06:55 32.73247 -117.18041 17 ft 13 kts 102°
2026-05-05 06:55 32.73291 -117.17975 17 ft 8 kts 16°
2026-05-05 06:55 32.73343 -117.17957 18 ft 8 kts 18°
2026-05-05 06:56 32.73376 -117.17949 19 ft 6 kts 14°
2026-05-05 06:56 32.73391 -117.17947 19 ft 0 kts 196°
2026-05-05 07:02 32.73376 -117.17951 19 ft 7 kts 191°
2026-05-05 07:02 32.73340 -117.17957 18 ft 0 kts 182°
2026-05-05 07:03 32.73301 -117.17947 17 ft 0 kts 130°
2026-05-05 07:03 32.73302 -117.17945 17 ft 0 kts 41°
2026-05-05 07:03 32.73296 -117.17927 17 ft 7 kts 109°
2026-05-05 07:03 32.73275 -117.17846 19 ft 10 kts 105°
2026-05-05 07:04 32.73257 -117.17774 20 ft 11 kts 105°
2026-05-05 07:04 32.73227 -117.17684 21 ft 10 kts 142°
2026-05-05 07:04 32.73165 -117.17645 20 ft 9 kts 148°
2026-05-05 07:04 32.73132 -117.17591 21 ft 7 kts 125°
2026-05-05 07:05 32.73099 -117.17557 21 ft 6 kts 144°
2026-05-05 07:05 32.73093 -117.17552 21 ft 0 kts 144°
2026-05-05 07:05 32.73079 -117.17541 21 ft 10 kts 148°
2026-05-05 07:06 32.73019 -117.17592 20 ft 22 kts 281°
2026-05-05 07:06 32.73110 -117.17956 52 ft 57 kts 278°
2026-05-05 07:06 32.73243 -117.18513 108 ft 80 kts 282°
2026-05-05 07:06 32.73401 -117.19146 310 ft 80 kts 283°
2026-05-05 07:07 32.73559 -117.19763 548 ft 75 kts 279°
2026-05-05 07:07 32.73691 -117.20388 716 ft 80 kts 284°
2026-05-05 07:07 32.73825 -117.21042 875 ft 82 kts 259°
2026-05-05 07:07 32.73450 -117.21526 1046 ft 87 kts 197°
2026-05-05 07:08 32.72894 -117.21301 1217 ft 93 kts 129°
2026-05-05 07:08 32.72540 -117.20657 1389 ft 94 kts 123°
2026-05-05 07:08 32.72199 -117.19983 1574 ft 93 kts 120°
2026-05-05 07:08 32.71930 -117.19299 1783 ft 91 kts 112°